User: anonymous   Login
Location: Christchurch
(43.5330°S, 172.6330°E)
Time: 22:39:44
(UTC+13:00)
Language:

Atlas Centaur 2 - Orbit

View from above orbital plane
View from above orbital plane
View from above satellite
View from above satellite

Ground track
Ground track

The orbit data is extracted from the following two-line orbital elements,

1   694U 63047A   19291.69691439 +.00000221 +00000-0 +12452-4 0  9991
2   694 030.3587 147.3571 0586266 239.1368 115.0290 14.02522189802990
Epoch (UTC): 18 October 2019 16:43:33
Eccentricity: 0.0586266
inclination: 30.3587°
perigee height: 459 km
apogee height: 1311 km
right ascension of ascending node: 147.3571°
argument of perigee: 239.1368°
revolutions per day: 14.02522189
mean anomaly at epoch: 115.0290°
orbit number at epoch: 80299

The dashed part of the orbit path shows where the satellite is in the earth's shadow,  

DLR